FW4838 Weather Reports


time (UTC)temp
C
wind
direction
speed
KPH
gust
KPH
rain 1hr
cm
rain 24hr
cm
rain mn
cm
humidity
%
barometer
mb
20260906220042 36 62 9.7 20.9 0.00 0.00 0.00 36 1012.8
20260906214540 36 65 4.8 17.7 0.00 0.00 0.00 38 1013.2
20260906213044 37 62 8.0 20.9 0.00 0.00 0.00 36 1013.2
20260906211543 37 127 4.8 16.1 0.00 0.00 0.00 36 1013.4
20260906210048 37 133 4.8 20.9 0.00 0.00 0.00 36 1013.6
20260906204543 37 112 8.0 20.9 0.00 0.00 0.00 35 1013.8
20260906203042 36 169 4.8 14.5 0.00 0.00 0.00 38 1013.9
20260906201550 36 43 11.3 19.3 0.00 0.00 0.00 38 1014.1
20260906200043 35 34 6.4 16.1 0.00 0.00 0.00 40 1014.1
20260906194542 35 42 11.3 20.9 0.00 0.00 0.00 40 1014.4
20260906193042 35 105 4.8 14.5 0.00 0.00 0.00 39 1014.5
20260906191543 35 117 6.4 12.9 0.00 0.00 0.00 39 1014.9
20260906190056 35 56 3.2 17.7 0.00 0.00 0.00 42 1014.9
20260906184551 36 137 8.0 22.5 0.00 0.00 0.00 39 1015.0
20260906183050 35 53 4.8 17.7 0.00 0.00 0.00 40 1015.2
20260906181542 36 62 6.4 17.7 0.00 0.00 0.00 39 1015.6
20260906180045 34 67 6.4 20.9 0.00 0.00 0.00 44 1015.8
20260906174546 34 136 6.4 14.5 0.00 0.00 0.00 43 1016.0
20260906173044 33 40 0.0 16.1 0.00 0.00 0.00 46 1016.3
20260906171541 34 46 9.7 19.3 0.00 0.00 0.00 44 1016.4
20260906170043 34 71 4.8 17.7 0.00 0.00 0.00 45 1016.6
20260906164542 33 15 6.4 17.7 0.00 0.00 0.00 46 1016.7
20260906163045 33 141 6.4 22.5 0.00 0.00 0.00 46 1016.7
20260906161542 33 49 6.4 19.3 0.00 0.00 0.00 47 1016.8
20260906154555 32 117 1.6 11.3 0.00 0.00 0.00 50 1016.7
20260906153044 32 239 4.8 12.9 0.00 0.00 0.00 52 1016.7
20260906151542 31 292 4.8 11.3 0.00 0.00 0.00 54 1016.8
20260906150048 31 246 4.8 11.3 0.00 0.00 0.00 56 1016.7
20260906144543 31 313 4.8 11.3 0.00 0.00 0.00 57 1016.7
20260906143044 29 224 3.2 6.4 0.00 0.00 0.00 61 1016.5
20260906141544 28 241 1.6 4.8 0.00 0.00 0.00 65 1016.6
20260906140047 27 250 1.6 6.4 0.00 0.00 0.00 67 1016.5
20260906134555 26 238 1.6 6.4 0.00 0.00 0.00 69 1016.5
20260906133107 26 204 1.6 6.4 0.00 0.00 0.00 72 1016.4
20260906131541 25 187 1.6 4.8 0.00 0.00 0.00 75 1016.3
20260906130042 24 185 1.6 4.8 0.00 0.00 0.00 77 1016.3
20260906124543 23 178 0.0 3.2 0.00 0.00 0.00 78 1016.0
20260906123044 23 0 0.0 6.4 0.00 0.00 0.00 78 1015.9
20260906121543 23 188 0.0 1.6 0.00 0.00 0.00 79 1015.6
20260906120042 23 186 0.0 3.2 0.00 0.00 0.00 79 1015.5
20260906114548 23 0 0.0 3.2 0.00 0.00 0.00 78 1015.3
20260906113043 23 0 0.0 3.2 0.00 0.00 0.00 77 1015.2
20260906111543 23 184 1.6 6.4 0.00 0.00 0.00 78 1015.2
20260906110043 23 0 0.0 1.6 0.00 0.00 0.00 78 1015.0
20260906104600 23 148 0.0 3.2 0.00 0.00 0.00 77 1015.1
20260906103042 24 0 0.0 3.2 0.00 0.00 0.00 77 1015.0
20260906101545 23 0 0.0 0.0 0.00 0.00 0.00 75 1014.9
20260906100043 24 0 0.0 4.8 0.00 0.00 0.00 74 1015.0
20260906094543 25 195 3.2 8.0 0.00 0.00 0.00 73 1015.0
20260906093058 25 161 1.6 6.4 0.00 0.00 0.00 73 1014.7
20260906091541 25 186 1.6 9.7 0.00 0.00 0.00 73 1014.7
20260906090043 25 165 1.6 6.4 0.00 0.00 0.00 72 1014.7
20260906084545 25 167 1.6 8.0 0.00 0.00 0.00 71 1014.6
20260906083044 25 205 3.2 11.3 0.00 0.00 0.00 71 1014.6
20260906081544 26 192 4.8 9.7 0.00 0.00 0.00 70 1014.4
20260906080043 26 161 1.6 11.3 0.00 0.00 0.00 70 1014.6
20260906074542 26 172 3.2 9.7 0.00 0.00 0.00 70 1014.7
20260906073043 26 159 4.8 12.9 0.00 0.00 0.00 68 1014.8
20260906071545 26 201 4.8 14.5 0.00 0.00 0.00 68 1014.8
20260906070044 26 173 3.2 11.3 0.00 0.00 0.00 67 1014.9
20260906064542 27 157 4.8 14.5 0.00 0.00 0.00 67 1015.1
20260906063045 27 134 3.2 12.9 0.00 0.00 0.00 66 1015.2
20260906061546 27 191 6.4 12.9 0.00 0.00 0.00 64 1015.4
20260906060044 27 177 4.8 14.5 0.00 0.00 0.00 63 1015.6
20260906054554 27 144 6.4 12.9 0.00 0.00 0.00 63 1015.8
20260906053044 28 151 6.4 14.5 0.00 0.00 0.00 61 1015.5
20260906051542 28 192 8.0 19.3 0.00 0.00 0.00 60 1015.4
20260906050059 28 153 4.8 14.5 0.00 0.00 0.00 59 1015.4
20260906044546 28 159 6.4 16.1 0.00 0.00 0.00 56 1015.3
20260906043042 28 155 6.4 16.1 0.00 0.00 0.00 55 1015.3
20260906041543 29 168 4.8 14.5 0.00 0.00 0.00 53 1015.3
20260906040044 28 169 4.8 12.9 0.00 0.00 0.00 52 1015.0
20260906034546 28 127 1.6 6.4 0.00 0.00 0.00 52 1015.2
20260906033053 28 128 1.6 6.4 0.00 0.00 0.00 51 1015.0
20260906031550 28 100 1.6 6.4 0.00 0.00 0.00 51 1015.0
20260906030042 30 101 1.6 6.4 0.00 0.00 0.00 49 1014.7
20260906024544 30 136 1.6 6.4 0.00 0.00 0.00 49 1014.4
20260906023044 30 121 1.6 8.0 0.00 0.00 0.00 48 1014.2
20260906021550 30 165 1.6 6.4 0.00 0.00 0.00 47 1013.9
20260906020053 31 132 3.2 8.0 0.00 0.00 0.00 46 1013.9
20260906014554 31 157 1.6 6.4 0.00 0.00 0.00 45 1013.6
20260906013046 32 124 3.2 9.7 0.00 0.00 0.00 43 1013.5
20260906011542 32 130 3.2 8.0 0.00 0.00 0.00 42 1013.5
20260906010048 32 138 3.2 11.3 0.00 0.00 0.00 41 1013.2
20260906004543 33 107 4.8 14.5 0.00 0.00 0.00 40 1013.2
20260906003042 33 157 4.8 14.5 0.00 0.00 0.00 40 1013.2
20260906001542 34 171 4.8 22.5 0.00 0.00 0.00 39 1013.1
20260906000045 35 113 6.4 16.1 0.00 0.00 0.00 38 1012.9
20260905234549 35 109 6.4 16.1 0.00 0.00 0.00 37 1013.1
20260905233044 35 78 4.8 16.1 0.00 0.00 0.00 36 1012.8
20260905231546 35 126 4.8 16.1 0.00 0.00 0.00 36 1012.7
20260905230101 35 216 9.7 17.7 0.00 0.00 0.00 37 1012.6
20260905224544 35 163 4.8 14.5 0.00 0.00 0.00 37 1012.7
20260905223043 36 127 4.8 17.7 0.00 0.00 0.00 36 1012.6
20260905221546 36 145 4.8 12.9 0.00 0.00 0.00 35 1012.7